Regional Weather Roundup
Issued by NWS Newport/Morehead, NC

Current Version | Previous Version | Graphics & Text | Print | Product List | Glossary On
Versions: 1 2 3 4 5 6 7 8 9 10 11 12 13 14 15 16 17 18 19 20 21 22 23 24 25 26 27 28 29 30 31 32 33 34 35 36 37 38 39 40 41 42 43 44 45 46 47 48 49 50
000 ASUS42 KMHX 020913 RWRMHX WEATHER ROUNDUP FOR EASTERN NORTH CAROLINA NATIONAL WEATHER SERVICE NEWPORT/MOREHEAD CITY NC 500 AM EDT THU JUL 02 2015 NOTE: "FAIR" INDICATES FEW OR NO CLOUDS BELOW 12,000 FEET WITH NO SIGNIFICANT WEATHER AND/OR OBSTRUCTIONS TO VISIBILITY NCZ015>017-031-032-045>047-102-103-021000- NORTH COAST CITY SKY/WX TMP DP RH WIND PRES REMARKS EDENTON NOT AVBL ELIZABETH CITY CLOUDY 76 72 87 SW8 29.89F KITTY HAWK NOT AVBL MANTEO NOT AVBL $$ NCZ045>047-081-094-103-104-021000- CENTRAL COAST CITY SKY/WX TMP DP RH WIND PRES REMARKS FRISCO PTCLDY 78 74 87 SW7 29.94F SWANQUARTER N/A 79 N/A N/A SW9G17 29.88S $$ NCZ095-097-098-100-101-021000- SOUTHERN COAST CITY SKY/WX TMP DP RH WIND PRES REMARKS BEAUFORT CLEAR 79 76 90 SW12 29.93F CEDAR ISLAND N/A 77 N/A N/A S3G9 29.97S JACKSONVILLE PTCLDY 75 70 84 SW6 29.92F PINEY ISLAND MOSUNNY N/A N/A N/A S7 29.93F WILMINGTON PTCLDY 77 71 82 SW8 29.94S $$ NCZ011>013-027>030-043-044-078>080-089-090>093-098-021000- COASTAL PLAIN CITY SKY/WX TMP DP RH WIND PRES REMARKS AHOSKIE MOCLDY 72 70 94 S5 29.88F CLINTON NOT AVBL ELIZABETHTOWN NOT AVBL GOLDSBORO CLOUDY 75 72 88 S3 29.89S GREENVILLE MOCLDY 77 72 83 SW6 29.93S HAVELOCK CLEAR 75 71 87 SW5 29.94F KENANSVILLE NOT AVBL KINSTON NOT AVBL NEW BERN PTCLDY 74 71 91 SW6 29.94S RICHLANDS PTCLDY 72 66 83 SW6 29.93S ROCKY MOUNT MOCLDY 75 71 87 S6 29.89F WASHINGTON NOT AVBL WHITEVILLE NOT AVBL $$ AMZ130-135-150-152-154-156-158-170-250-252-270-ANZ085-086-088-633-658-670-021000- MARINE OBSERVATIONS STATION/POSITION TIME TEMP WIND PRES WAVE SWELL AIR SEA DIR/SP/G HT/PER HT/PER (UTC) (F) (DEG/KT/KT) (MB) (FT/S) (FT/S) CHESAPEAKE LIGHT 0900 77 210/ 10/ 11 1012.2 64 E VA BEACH 0850 78 77 220/ 6/ 8 1012.1 4/ 8 3/ 8 DUCK 0800 78 65 230/ 10/ 13 1012.0 2 E DUCK 0811 69 N/A 2/ 8 OREGON INLET 0800 78 81 220/ 11/ 12 1013.2 13E OREGON INLT 0900 73 N/A 4/ 8 HATTERAS CG 0800 76 80 210/ 5/ 6 1013.5 DIAMOND BUOY 0850 80 82 230/ 16/ 19 1013.7 5/ 5 2/14 CAPE LOOKOUT 0900 80 220/ 9/ 12 1013.7 BEAUFORT LAB 0800 80 81 240/ 5/ 10 1013.3 30 SE NEW RVR IN 0808 80 80 250/ 14/ 17 1014.7 27 SE WRIGHTSVLE 0800 80 250/ 14/ 16 N/A 5 SE WRIGHTSVLE 0808 80 80 240/ 8/ 12 1014.0 225 S CAPE HAT 0850 81 80 220/ 17/ 21 1017.9 6/ 7 2/ 8 41 SE CHARLESTON 0850 81 82 240/ 14/ 16 1014.8 4/ 6 2/ 8 $$

USA.gov is the U.S. government's official web portal to all federal, state and local government web resources and services.